[[{"header":{"parameterUnit":"m.s-1","parameterCategory":1,"la1":30.2991,"la2":30.254,"lo1":-89.0895,"lo2":-89.0444,"dy":0.0017,"dx":0.0017,"nx":28,"ny":28,"refTime":"2025-03-30T09:00:00:Z","depth":0,"parameterNumber":2,"parameterNumberName":"U-component_of_WINDS"},"data":[0,0,0,0,0,0,0,0,0,0,0,0,0,0,0,0,0,0,0,0,0,0,0,0,0,0,0,0,0,0,0,0,0,0,0,0,0,0,0,0,0,0,0,0,0,0,0,0,0,0,0,0,0,0,0,0,0,0,0.3359,0.3359,0,0.338,0.338,0.338,0.3338,0.3337,0.3336,0.3334,0.336,0.3362,0.3364,0,0,0,0,0,0,0,0,0,0,0,0,0,0.3287,0.3288,0.3359,0.3359,0.336,0.338,0.338,0.338,0.3339,0.3337,0.3335,0.3334,0.336,0.3362,0.3364,0,0,0,0,0,0,0,0,0,0,0,0,0,0.3314,0.3289,0.3359,0.3341,0.334,0.338,0.338,0.338,0.3339,0.3337,0.3335,0.3333,0.3359,0.3362,0.3365,0.3424,0,0,0.3374,0.3375,0,0,0,0,0,0,0,0,0.3312,0.3317,0.3343,0.3342,0.3341,0.3354,0.3364,0.3395,0.334,0.3339,0.3334,0.3332,0.336,0.3363,0.3372,0.3426,0.3427,0.3374,0.3376,0.3377,0.3378,0,0,0,0,0,0,0,0.3311,0.3316,0.3367,0.3344,0.3342,0.3333,0.3335,0.337,0.3361,0.3339,0.3336,0.3339,0.3359,0.3369,0.3372,0.3427,0.3374,0.3376,0.3378,0.3379,0.3531,0.3533,0,0,0,0,0,0,0.331,0.3314,0.3367,0.3368,0.3321,0.3336,0.3338,0.3352,0.3361,0.336,0.3341,0.3337,0.3365,0.3368,0.3373,0.3443,0.3377,0.338,0.3381,0.3528,0.3531,0.3534,0,0,0,0,0,0,0.3309,0.3315,0.3366,0.334,0.3346,0.3339,0.3356,0.3354,0.3363,0.3362,0.3361,0.3352,0.3363,0.3368,0.3411,0.3443,0.3381,0.3384,0.3526,0.3529,0.3532,0.3584,0,0,0,0,0,0,0.3307,0.3315,0.3337,0.3341,0.3347,0.3404,0.3358,0.3356,0.3368,0.3363,0.3372,0.3372,0.3362,0.3407,0.3414,0.3446,0.3386,0.3523,0.3527,0.3531,0.358,0.3589,0.3597,0,0,0,0,0,0.3305,0.3352,0.3339,0.3345,0.3375,0.3405,0.3409,0.3396,0.3371,0.3393,0.3392,0.3371,0.3438,0.3412,0.342,0.3453,0.3521,0.3526,0.3531,0.3576,0.3587,0.3597,0,0,0,0,0,0,0.3354,0.3352,0.3337,0.3387,0.3397,0.3398,0.3426,0.3408,0.3426,0.3422,0.3405,0.3408,0.3454,0.3458,0.3428,0.3511,0.3475,0.3482,0.3507,0.3518,0.3526,0.3525,0.3389,0,0,0,0,0,0.3371,0.3395,0.3392,0.3437,0.3442,0.3433,0.3446,0.3435,0.3445,0.3449,0.3451,0.3462,0.3486,0.3502,0.3523,0.3579,0.3581,0.3606,0.3615,0.3622,0.3628,0.3658,0.3669,0.355,0.355,0.355,0,0,0.3406,0.3408,0.3424,0.3446,0.3452,0.3478,0.3437,0.3467,0.3486,0.3454,0.3494,0.3496,0.3508,0.3557,0.3579,0.3562,0.3661,0.3628,0.3634,0.3637,0.3664,0.3676,0.3686,0.3553,0.3553,0.3552,0,0,0.3483,0.3486,0.3523,0.3529,0.3538,0.3532,0.3541,0.3545,0.3544,0.3584,0.356,0.3583,0.3624,0.3633,0.3643,0.3722,0.3703,0.3729,0.3775,0.3804,0.3813,0.3822,0.385,0.386,0.3735,0.3736,0.3736,0,0.3526,0.3563,0.3545,0.3576,0.3586,0.3556,0.3594,0.3601,0.3617,0.3626,0.3605,0.3655,0.3661,0.3712,0.3731,0.374,0.375,0.3729,0.3813,0.3821,0.3829,0.3856,0.3866,0.3739,0.3738,0.3738,0.3738,0,0.3615,0.3641,0.367,0.3684,0.3698,0.3732,0.3721,0.3737,0.3724,0.372,0.3761,0.3766,0.3788,0.3799,0.3788,0.3849,0.3838,0.3815,0.378,0.3844,0.3869,0.3879,0.3743,0.3742,0.3741,0.374,0,0,0.3726,0.3728,0.3739,0.3745,0.3751,0.3772,0.3804,0.3824,0.3839,0.385,0.3878,0.3912,0.3891,0.3903,0.3892,0.3917,0.3979,0.3892,0.3892,0.3908,0.4047,0.4064,0.4077,0.3966,0.3968,0.397,0.4046,0,0.3802,0.3857,0.3841,0.3897,0.3921,0.3892,0.392,0.3928,0.3925,0.3946,0.3943,0.3967,0.3937,0.3944,0.3968,0.3967,0.4007,0.3961,0.3993,0.3995,0.3992,0.409,0.4108,0.418,0.4056,0.4058,0.4059,0,0.3899,0.3912,0.397,0.3971,0.3981,0.4007,0.4023,0.4043,0.4051,0.4047,0.4058,0.4042,0.4075,0.4038,0.4084,0.4053,0.4065,0.4066,0.4069,0.4072,0.4031,0.4097,0.4203,0.4214,0.4074,0.4073,0.4072,0,0.3974,0.4007,0.4045,0.4051,0.4054,0.4072,0.4075,0.408,0.4093,0.4107,0.4115,0.4134,0.4145,0.416,0.415,0.4124,0.4198,0.416,0.4196,0.4197,0.4214,0.4214,0.4325,0.4221,0.4221,0.422,0.422,0,0.4062,0.4098,0.4079,0.4103,0.4143,0.4124,0.4165,0.4164,0.4169,0.4193,0.4169,0.4192,0.4176,0.4198,0.419,0.4229,0.4234,0.4233,0.4231,0.4236,0.4236,0.4244,0.4239,0.4223,0.4223,0.4222,0.4222,0,0.4154,0.4142,0.4182,0.418,0.418,0.421,0.4209,0.4232,0.4226,0.4256,0.4262,0.4254,0.4279,0.4269,0.4296,0.429,0.4341,0.4332,0.4338,0.4336,0.4373,0.437,0.4495,0.451,0.4395,0.4396,0.4397,0,0.4211,0.4238,0.4238,0.4251,0.4255,0.4277,0.4289,0.4272,0.4285,0.4296,0.4317,0.4339,0.4356,0.4396,0.4394,0.4414,0.4405,0.4448,0.4409,0.4412,0.4407,0.4406,0.4409,0.4456,0.4457,0.4458,0.4459,0,0.4313,0.4306,0.4323,0.4338,0.4353,0.4364,0.4374,0.4386,0.437,0.4386,0.441,0.4423,0.4449,0.4471,0.4489,0.4492,0.4474,0.4471,0.4481,0.4487,0.449,0.4489,0.436,0.4469,0.4468,0.4467,0.4467,0.4466,0.439,0.4412,0.4416,0.4436,0.4441,0.445,0.447,0.4466,0.4485,0.4504,0.4493,0.4521,0.4528,0.4549,0.4555,0.4577,0.4561,0.4575,0.4579,0.4583,0.4588,0.4485,0.458,0.458,0.458,0.458,0.4579,0,0.4492,0.4492,0.451,0.4524,0.4539,0.4518,0.4527,0.4542,0.4566,0.4573,0.459,0.4617,0.4638,0.4636,0.4656,0.4674,0.4666,0.468,0.4679,0.468,0.4601,0.4591,0.4686,0.4686,0.4686,0.4686,0.4686,0.4686,0.4547,0.4583,0.4576,0.4615,0.4615,0.4641,0.4648,0.4657,0.4662,0.4693,0.471,0.4707,0.4711,0.4731,0.4749,0.4748,0.4757,0.4775,0.4771,0.4697,0.4686,0.4676,0.4666,0.4777,0.4777,0.4849,0.4849,0.485]},{"header":{"parameterUnit":"m.s-1","parameterCategory":1,"la1":30.2991,"la2":30.254,"lo1":-89.0895,"lo2":-89.0444,"dy":0.0017,"dx":0.0017,"nx":28,"ny":28,"refTime":"2025-03-30T09:00:00:Z","depth":0,"parameterNumber":3,"parameterNumberName":"V-component_of_WINDS"},"data":[0,0,0,0,0,0,0,0,0,0,0,0,0,0,0,0,0,0,0,0,0,0,0,0,0,0,0,0,0,0,0,0,0,0,0,0,0,0,0,0,0,0,0,0,0,0,0,0,0,0,0,0,0,0,0,0,0,0,1.0691,1.0691,0,1.07,1.07,1.07,1.0692,1.0692,1.0691,1.0691,1.0698,1.0699,1.0699,0,0,0,0,0,0,0,0,0,0,0,0,0,1.0666,1.0666,1.0691,1.0691,1.0691,1.07,1.07,1.07,1.0692,1.0691,1.0691,1.0691,1.0698,1.0699,1.07,0,0,0,0,0,0,0,0,0,0,0,0,0,1.0676,1.0666,1.0691,1.0688,1.0688,1.07,1.07,1.07,1.0692,1.0691,1.0691,1.0691,1.0698,1.0699,1.07,1.0714,0,0,1.0702,1.0702,0,0,0,0,0,0,0,0,1.0675,1.0677,1.0689,1.0689,1.0688,1.0694,1.0694,1.0705,1.0692,1.069,1.0691,1.069,1.0697,1.0698,1.0701,1.0715,1.0715,1.0702,1.0702,1.0703,1.0703,0,0,0,0,0,0,0,1.0675,1.0676,1.0695,1.0689,1.0689,1.0686,1.0687,1.0696,1.0697,1.0691,1.069,1.0691,1.0697,1.07,1.0701,1.0715,1.0702,1.0703,1.0703,1.0703,1.074,1.0741,0,0,0,0,0,0,1.0674,1.0676,1.0694,1.0695,1.0681,1.0687,1.0688,1.0693,1.0696,1.0697,1.0692,1.0691,1.0699,1.07,1.0701,1.0718,1.0703,1.0704,1.0704,1.074,1.074,1.0741,0,0,0,0,0,0,1.0674,1.0676,1.0694,1.0685,1.0687,1.0688,1.0693,1.0693,1.0696,1.0697,1.0697,1.0695,1.0699,1.07,1.0711,1.0718,1.0704,1.0705,1.0739,1.074,1.0741,1.0752,0,0,0,0,0,0,1.0673,1.0676,1.0682,1.0685,1.0688,1.0704,1.0694,1.0694,1.0698,1.0697,1.07,1.07,1.0698,1.071,1.0712,1.0719,1.0705,1.0739,1.074,1.0741,1.0751,1.0753,1.0755,0,0,0,0,0,1.0672,1.0684,1.0682,1.0684,1.0695,1.0704,1.0706,1.0704,1.0698,1.0704,1.0705,1.07,1.0717,1.0711,1.0713,1.0721,1.0738,1.0739,1.074,1.075,1.0752,1.0755,0,0,0,0,0,0,1.0681,1.0685,1.0682,1.0696,1.07,1.0703,1.071,1.0707,1.0712,1.0711,1.0708,1.0709,1.072,1.0722,1.0715,1.0735,1.0727,1.0728,1.0733,1.0736,1.0737,1.0737,1.0706,0,0,0,0,0,1.0685,1.0692,1.0695,1.0707,1.0709,1.0709,1.0713,1.0712,1.0715,1.0717,1.0718,1.0722,1.0728,1.0732,1.0738,1.0751,1.0751,1.0757,1.0759,1.0761,1.0762,1.0769,1.0771,1.0745,1.0745,1.0745,0,0,1.0692,1.0695,1.07,1.0709,1.0712,1.0719,1.0711,1.0719,1.0724,1.0718,1.0728,1.0729,1.0733,1.0745,1.0751,1.0747,1.0769,1.0762,1.0764,1.0764,1.077,1.0773,1.0775,1.0746,1.0746,1.0745,0,0,1.0709,1.0713,1.0722,1.0726,1.073,1.073,1.0733,1.0736,1.0737,1.0747,1.0743,1.0749,1.076,1.0762,1.0765,1.0783,1.0779,1.0785,1.0795,1.0802,1.0804,1.0805,1.0811,1.0813,1.0787,1.0787,1.0787,0,1.0717,1.0729,1.0728,1.0736,1.074,1.0736,1.0745,1.0748,1.0754,1.0757,1.0752,1.0766,1.0768,1.078,1.0785,1.0787,1.079,1.0785,1.0804,1.0805,1.0807,1.0812,1.0815,1.0787,1.0787,1.0787,1.0787,0,1.0739,1.0747,1.0754,1.076,1.0765,1.0774,1.0774,1.0779,1.0777,1.0777,1.0788,1.079,1.0796,1.0799,1.0797,1.0811,1.0809,1.0804,1.0796,1.081,1.0815,1.0817,1.0788,1.0788,1.0788,1.0788,0,0,1.0761,1.0767,1.0769,1.0772,1.0777,1.0783,1.0792,1.0798,1.0802,1.0806,1.0813,1.0822,1.0818,1.0821,1.082,1.0826,1.0839,1.082,1.082,1.0823,1.0854,1.0857,1.0859,1.0837,1.0837,1.0837,1.0853,0,1.0777,1.0793,1.0792,1.0806,1.0813,1.0809,1.0817,1.082,1.0821,1.0827,1.0828,1.0834,1.0828,1.083,1.0836,1.0836,1.0845,1.0835,1.0842,1.0842,1.0841,1.0862,1.0865,1.0879,1.0855,1.0856,1.0856,0,1.0798,1.0804,1.0819,1.0823,1.0826,1.0833,1.0838,1.0844,1.0848,1.0848,1.0852,1.0849,1.0857,1.085,1.0861,1.0854,1.0857,1.0858,1.0858,1.0858,1.0849,1.0861,1.0884,1.0886,1.0859,1.0859,1.0859,0,1.0812,1.0823,1.0834,1.0836,1.0841,1.0846,1.0848,1.0851,1.0855,1.086,1.0862,1.0868,1.0871,1.0875,1.0874,1.0869,1.0885,1.0878,1.0885,1.0885,1.0888,1.0887,1.091,1.0891,1.0891,1.0891,1.0891,0,1.083,1.0839,1.084,1.0846,1.0856,1.0855,1.0865,1.0867,1.087,1.0876,1.0873,1.0879,1.0877,1.0883,1.0882,1.0891,1.0892,1.0892,1.0892,1.0892,1.0892,1.0893,1.0892,1.0891,1.0891,1.0891,1.0891,0,1.0846,1.0847,1.0858,1.0862,1.0863,1.087,1.0873,1.0879,1.088,1.0888,1.0889,1.089,1.0897,1.0896,1.0903,1.0903,1.0914,1.0912,1.0912,1.0912,1.0919,1.0918,1.0943,1.0946,1.0925,1.0925,1.0926,0,1.0857,1.0864,1.0869,1.0873,1.0876,1.0882,1.0886,1.0886,1.089,1.0895,1.09,1.0906,1.0911,1.0921,1.0922,1.0928,1.0926,1.0934,1.0927,1.0927,1.0925,1.0924,1.0925,1.0936,1.0936,1.0936,1.0936,0,1.0876,1.0876,1.0883,1.0889,1.0894,1.0899,1.0903,1.0906,1.0906,1.0911,1.0918,1.0922,1.0929,1.0935,1.094,1.0942,1.0939,1.0939,1.0941,1.094,1.094,1.0939,1.0916,1.0938,1.0938,1.0938,1.0938,1.0937,1.089,1.0895,1.09,1.0907,1.091,1.0914,1.092,1.0921,1.0927,1.0933,1.0933,1.094,1.0944,1.095,1.0953,1.0958,1.0955,1.0958,1.0958,1.0959,1.0959,1.094,1.0959,1.0959,1.0959,1.0959,1.0959,0,1.0908,1.091,1.0917,1.0923,1.0929,1.0926,1.0931,1.0935,1.0942,1.0946,1.0951,1.0958,1.0964,1.0966,1.0971,1.0975,1.0974,1.0977,1.0976,1.0976,1.0962,1.0959,1.0978,1.0978,1.0978,1.0978,1.0978,1.0978,1.0918,1.0927,1.0928,1.0939,1.0942,1.095,1.0952,1.0956,1.0959,1.0968,1.0973,1.0974,1.0977,1.0983,1.0988,1.0988,1.099,1.0993,1.0993,1.0979,1.0977,1.0975,1.0973,1.0994,1.0994,1.1006,1.1006,1.1006]}]]